Regional Weather Roundup
Issued by NWS Midland/Odessa, TX

Skip options and go directly to product.
Home | Oldest Version | Next Version | Current Version | All | Text Only | Save Text | Print | Product List | Glossary On

Skip product version selection by date and time.   
328
ASUS44 KMAF 270302
RWRMAF
MIDLAND AREA WEATHER ROUNDUP
NATIONAL WEATHER SERVICE MIDLAND TX
1000 PM CDT TUE AUG 26 2014

...IN SOUTHWEST TEXAS AND SOUTHEAST NEW MEXICO...

CITY           SKY/WX    TMP DP  RH WIND       PRES   REMARKS
ALPINE         PTCLDY    78  52  40 SE6       30.21R
ANDREWS        FAIR      83  56  39 SE5       30.09R
ARTESIA        NOT AVBL
BIG SPRING     CLEAR     85  49  28 E7        30.07R
CARLSBAD       CLOUDY    75  63  66 W12       30.08R
DRYDEN           N/A     90  53  28 E6        30.00R
FORT STOCKTON  PTCLDY    84  55  36 SE8       30.06R
GUAD PASS      CLOUDY    73  54  51 N7        30.25R
HOBBS          CLOUDY    81  57  44 NE10      30.11S
MARFA          PTCLDY    70  54  56 E5        30.20R
MIDLAND AIRPK  PTCLDY    87  54  31 SE7       30.07R
MIDLAND INTL   PTCLDY    88  54  31 SE10      30.06R
ODESSA         PTCLDY    87  53  31 SE9       30.07R
PECOS          MOCLDY    83  51  32 E3        30.01R
PRESIDIO       FAIR      91  49  24 NE9       29.99R
SEMINOLE       PTCLDY    81  49  32 SE5       30.11R
SNYDER         CLEAR     88  57  34 SE7       30.05R
WINK           MOCLDY    86  50  28 SE7       30.02R
$$
...OTHER STATIONS IN TEXAS...

CITY           SKY/WX    TMP DP  RH WIND       PRES   REMARKS
ABILENE        PTCLDY    90  63  40 SE17      30.03R
AMARILLO       CLOUDY    77  62  59 E10       30.14R
AUSTIN         MOCLDY    81  70  69 CALM      29.96R
BROWNSVILLE    CLEAR     82  76  81 E6        29.92R
CORPUS CHRISTI PTCLDY    84  73  69 E12       29.93R
DALLAS FTW     PTCLDY    89  67  47 E9        29.99R
DEL RIO        CLEAR     91  56  30 E7        29.92R
EL PASO        MOCLDY    80  60  50 NE6       30.11R
HOUSTON INT    MOCLDY    81  73  78 E8        29.96R
LUBBOCK        CLOUDY    81  60  48 NE6       30.11R
SAN ANGELO     CLEAR     85  59  41 S3        30.00R
SAN ANTONIO    MOCLDY    86  70  58 E7        29.97R
WACO           PTCLDY    84  68  58 E7        29.98R
WICHITA FALLS  NOT AVBL
$$
...OTHER LOCATIONS IN NEW MEXICO...

CITY           SKY/WX    TMP DP  RH WIND       PRES   REMARKS
ALAMAGORDO     LGT RAIN  68  63  83 E10       30.17R
ALBUQUERQUE    MOCLDY    69  56  62 N5        30.23R
CANNON AFB     LGT RAIN  69  65  86 NW12      30.20R
CLOVIS           N/A     72  59  64 NW14      30.22R
HOLLOMAN AFB   DRIZZLE   72  64  77 SE7       30.15R
ROSWELL        CLOUDY    73  63  70 SW8       30.13R
RUIDOSO        CLOUDY    59  55  88 CALM      30.37R
SANTA FE       CLOUDY    59  56  89 N8        30.29R
TRUTH OR CONSE CLOUDY    76  55  48 NW6       30.17R
TUCUMCARI      LGT RAIN  69  62  78 W9        30.18S
$$

USA.gov is the U.S. government's official web portal to all federal, state and local government web resources and services.